#timestamp,LO_Frequency,Hit,StdDev 
1702558815.0,286046998.4,N
1702558815.9,286046998.4,N
1702558835.8,286046998.6,N
1702558855.6,286046996.9,N
1702558875.4,286046999.4,N
1702558895.3,286046998.6,N
1702558915.1,286047001.2,N
1702558935.9,286047000.8,N
1702558955.7,286046999.9,N
1702558975.5,286046999.0,N
1702558995.4,286047001.0,N
1702559015.2,286047001.2,N
1702559035.0,286046998.4,N
1702559035.9,286046998.4,N
1702559055.8,286046999.3,N
1702559075.6,286046999.2,N
1702559095.5,286046997.9,N
1702559115.3,286046997.8,N
1702559135.1,286046997.7,N
1702559155.9,286046997.4,N
1702559175.7,286046996.8,N
1702559195.5,286046999.0,N
1702559215.4,286046997.1,N
1702559235.2,286046998.3,N
1702559255.1,286046998.2,N
1702559256.0,286046998.2,N
1702559275.8,286046998.8,N
1702559295.6,286046996.5,Y
1702559315.5,286047001.1,P
1702559335.3,286047000.3,N
1702559355.2,286047000.8,N
1702559375.9,286047000.4,N
1702559395.7,286046999.9,N
1702559415.6,286047000.7,N
1702559435.4,286047000.4,N
1702559455.2,286047001.2,N
1702559475.1,286047000.8,N
1702559476.0,286047000.8,N
1702559495.8,286047000.2,N
1702559515.7,286047002.2,Y
1702559535.5,286047001.3,P
1702559555.3,286047004.4,P
1702559575.2,286047002.5,N
1702559595.0,286046999.8,N
1702559595.9,286046999.8,N
1702559615.8,286046999.7,N
1702559635.6,286047002.2,N
1702559655.4,286047002.3,N
1702559675.3,286047002.8,N
1702559695.1,286047000.0,N
1702559715.9,286047002.8,N
1702559735.7,286047002.5,N
1702559755.5,286047002.0,N
1702559775.4,286047002.3,N
1702559795.2,286047001.0,N
1702559815.0,286047000.9,N
1702559815.9,286047000.9,N
1702559835.8,286046998.1,N
1702559855.6,286047000.4,N
1702559875.5,286047000.2,N
1702559895.3,286047000.1,N
1702559915.1,286046999.8,N
1702559935.9,286047002.1,N
1702559955.7,286047004.4,Y
1702559975.6,286047004.3,P
1702559995.4,286047003.8,N
1702560015.2,286047001.3,N
1702560035.1,286047002.3,N
1702560036.0,286047002.3,N
1702560055.8,286047002.0,N
1702560075.6,286047000.5,N
1702560095.5,286046998.9,N
1702560115.3,286046999.9,N
1702560135.2,286047002.0,N
1702560155.9,286047002.2,N
1702560175.7,286047002.2,N
1702560195.6,286047002.7,N
1702560215.4,286047002.2,N
1702560235.3,286047000.3,N
1702560255.1,286047002.2,N
1702560275.8,286047001.0,N
1702560295.7,286047001.2,N
1702560315.5,286046998.1,N
1702560335.4,286047000.7,N
1702560355.2,286046998.7,N
1702560375.0,286046999.2,N
1702560375.9,286046999.2,N
1702560395.8,286046998.6,N
1702560415.6,286046998.8,N
1702560435.4,286047000.9,N
1702560455.3,286047000.4,N
1702560475.1,286047000.5,N
1702560495.9,286046998.2,N
1702560515.7,286047000.4,N
1702560535.5,286047000.0,N
1702560555.4,286046998.2,N
1702560575.2,286047000.5,N
1702560595.0,286047001.0,N
1702560596.0,286047001.0,N
1702560615.8,286046999.8,N
1702560635.6,286047002.3,N
1702560655.5,286047002.4,N
1702560675.3,286047001.8,N
1702560695.1,286047001.6,N
1702560715.9,286047001.4,N
1702560765.7,286047005.6,E
1702560775.7,286047000.6,N
1702560795.5,286046995.9,P
1702560815.3,286046995.5,N
1702560835.2,286046996.1,N
1702560855.0,286046993.4,Y
1702560855.9,286046993.4,P
1702560875.8,286046999.2,N
1702560895.6,286046999.3,N
1702560915.4,286046998.8,N
1702560935.3,286046999.3,N
1702560955.1,286047001.1,N
1702560975.8,286046998.6,N
1702560995.7,286046999.2,N
1702561015.5,286046997.0,N
1702561035.4,286046996.5,N
1702561055.2,286046999.0,N
1702561075.0,286046998.8,N
1702561075.9,286046998.8,N
1702561095.8,286047000.8,N
1702561115.6,286046999.4,N
1702561135.4,286047000.6,N
1702561155.3,286046998.4,N
1702561175.1,286047002.8,N
1702561195.9,286047002.2,N
1702561215.7,286047000.1,N
1702561235.5,286047000.1,N
1702561255.4,286047000.7,N
1702561275.2,286046998.9,N
1702561295.0,286046998.7,N
1702561295.9,286046998.7,N
1702561315.8,286047000.7,N
1702561335.6,286046998.6,N
1702561355.5,286046996.5,N
1702561375.3,286046996.7,N
1702561395.1,286046997.8,N
1702561415.9,286046997.5,N
1702561435.7,286046996.5,N
1702561455.5,286046999.5,N
1702561475.4,286046995.3,N
1702561495.2,286046995.0,N
1702561515.1,286046997.5,N
1702561516.0,286046997.5,N
1702561535.8,286046998.9,N
1702561555.6,286046997.0,N
1702561575.5,286046998.8,N
1702561595.3,286046999.0,N
1702561615.2,286046999.5,N
1702561635.9,286046998.3,N
1702561655.7,286046998.8,N
1702561675.6,286046998.6,N
1702561695.4,286046998.9,N
1702561715.3,286046999.2,N
1702561735.1,286046999.5,N
1702561736.0,286046999.5,N
1702561755.8,286046996.5,N
1702561775.7,286046999.2,N
1702561795.5,286046996.5,N
1702561815.3,286046999.1,N
1702561835.2,286046998.7,N
1702561855.0,286046999.0,N
1702561855.9,286046999.0,N
1702561875.8,286046999.4,N
1702561895.6,286046998.8,N
1702561915.4,286047000.8,N
1702561935.3,286046999.4,N
1702561955.1,286046999.6,N
1702561975.8,286046997.0,N
1702561995.7,286046996.5,N
1702562015.5,286046999.2,N
1702562035.4,286046999.4,N
1702562055.2,286046999.2,N
1702562075.0,286046997.4,N
1702562075.9,286046997.4,N
1702562095.8,286046996.8,Y
1702562115.6,286046996.9,P
1702562135.5,286046999.5,N
1702562155.3,286046999.5,N
1702562175.1,286046998.2,N
1702562195.9,286046998.1,N
1702562215.7,286047000.6,N
1702562235.5,286047000.2,N
1702562255.4,286047000.0,N
1702562275.2,286046999.8,N
1702562295.1,286047002.1,N
1702562296.0,286047002.1,N
1702562315.8,286047001.7,N
1702562335.7,286047004.3,N
1702562355.5,286047006.0,Y
1702562375.3,286046999.7,P
1702562395.2,286047002.4,P
